Find Starlink 36648

NORAD ID: 67825 Int'l Des: 2026-033 Owner: SPXS Country: US Constellation: starlink operational
LEOCIRCULAR

現在のビュー

3D地球を読み込み中...

Starlink 36648について

説明を読み込み中...

次回通過

Passes for default location (London). Set your location on the main map for personalized predictions.

高度履歴

Loading altitude history...

軌道要素

1 67825U 26033E 26146.14249784 .00010844 00000-0 40290-3 0 9995
2 67825 42.9999 189.2630 0001075 275.7734 84.2995 15.27588579 16527
Epoch: May 26, 2026 • Age: 12 hours

現在のステータス

高度 493.7 km
速度 7.62 km/s
衛星直下点 -38.22°S, 52.73°W
打ち上げ日 Feb 16, 2026
運用期間 0.2 years
タイプ internet

技術仕様

分類 Payload
質量 575.00 kg
乾燥質量 530.00 kg
総質量 575.00 kg
長さ 0.30 m
直径 4.10 m
スパン 29.00 m
形状 Box + pan
製造者 SPXS
バスタイプ Starlink V2MO
フェーズステータス In Orbit
所有者/国 SPXS/US

Most Searched